Flag for USA

Past Weather in 40°37'59"N, 89°23'54"W, USA — Yesterday and Last 2 Weeks

Now
68 °F

Fog.


Feels Like: 68 °F
Forecast: 85 / 66 °F
Wind: No wind

Location: Greater Peoria Regional Airport

Current Time: Jun 5, 2020 at 5:34:54 am

Latest Report: Jun 5, 2020 at 4:54 am


Visibility: 6 mi

Pressure: 29.83 "Hg

Humidity: 93%

Dew Point: 66 °F

Location of 40°37'59"N, 89°23'54"WLocation

Past Weather in 40°37'59"N, 89°23'54"W — Graph

°F

40°37'59"N, 89°23'54"W Temperature Yesterday

Maximum temperature yesterday: 84 °F (at 3:54 pm)
Minimum temperature yesterday: 68 °F (at 1:54 am)
Average temperature yesterday: 75 °F

High & Low Weather Summary for the Past Weeks

 TemperatureHumidityPressure
High89 °F (Jun 2, 3:54 pm)97% (May 24, 5:56 am)30.34 "Hg (May 24, 5:56 am)
Low52 °F (May 30, 2:54 am)30% (May 31, 5:54 pm)29.75 "Hg (Jun 3, 9:54 pm)
Average70 °F70%29.96 "Hg
* Reported May 21 3:25 am — Jun 5 3:54 am, 40°37'59"N, 89°23'54"W. Weather by CustomWeather, © 2020

Note: Actual official high and low records may vary slightly from our data, if they occured in-between our weather recording intervals... More about our weather records

40°37'59"N, 89°23'54"W Weather History for the Previous 24 Hours

Scroll right to see more
 ConditionsComfort  
Time TempWeatherWind HumidityBarometerVisibility
3:54 am
Fri, Jun 5
69 °FClear.No wind90%29.81 "Hg9 mi
2:54 am69 °FClear.5 mph90%29.83 "Hg10 mi
1:54 am71 °FClear.No wind87%29.84 "Hg10 mi
12:54 am71 °FClear.No wind87%29.84 "Hg10 mi
11:54 pm
Thu, Jun 4
71 °FClear.3 mph87%29.83 "Hg10 mi
10:54 pm73 °FClear.No wind81%29.82 "Hg10 mi
9:54 pm75 °FClear.3 mph76%29.80 "Hg10 mi
8:54 pm76 °FClear.5 mph72%29.78 "Hg10 mi
7:54 pm80 °FSunny.6 mph62%29.77 "Hg10 mi
6:54 pm82 °FSunny.7 mph58%29.75 "Hg10 mi
5:54 pm83 °FSunny.8 mph59%29.76 "Hg10 mi
4:54 pm83 °FSunny.3 mph59%29.75 "Hg10 mi
3:54 pm84 °FSunny.No wind55%29.77 "Hg10 mi
2:54 pm82 °FPassing clouds.No wind63%29.78 "Hg10 mi
1:54 pm81 °FScattered clouds.5 mph65%29.79 "Hg10 mi
1:07 pm78 °FPartly sunny.6 mph71%29.81 "Hg10 mi
12:54 pm78 °FPassing clouds.6 mph69%29.80 "Hg10 mi
11:54 am76 °FScattered clouds.6 mph72%29.80 "Hg10 mi
11:12 am75 °FScattered clouds.8 mph71%29.82 "Hg10 mi
10:54 am74 °FPartly sunny.10 mph71%29.81 "Hg10 mi
9:54 am73 °FSunny.12 mph74%29.80 "Hg10 mi
8:54 am72 °FSunny.10 mph73%29.80 "Hg10 mi
7:54 am70 °FSunny.8 mph79%29.79 "Hg10 mi
6:54 am69 °FSunny.7 mph81%29.77 "Hg10 mi
5:54 am69 °FPassing clouds.5 mph84%29.77 "Hg10 mi
Weather by CustomWeather, © 2020

See weather overview

Advertising